| time (UTC) | temp F | wind direction | speed knots | gust knots | rain 1hr in | rain 24hr in | rain mn in | humidity % | barometer mb |
| 20260505024704 | 67 | 334 | 5.2 | 7.0 | 0.00 | 0.00 | 0.00 | 68 | 1031.6 |
| 20260505024204 | 67 | 337 | 5.2 | 11.3 | 0.00 | 0.00 | 0.00 | 67 | 1031.4 |
| 20260505023704 | 67 | 140 | 0.9 | 2.6 | 0.00 | 0.00 | 0.00 | 66 | 1031.5 |
| 20260505023204 | 67 | 34 | 1.7 | 5.2 | 0.00 | 0.00 | 0.00 | 66 | 1031.5 |
| 20260505021705 | 68 | 34 | 0.9 | 4.3 | 0.00 | 0.00 | 0.00 | 65 | 1031.8 |
| 20260505021204 | 67 | 67 | 0.9 | 4.3 | 0.00 | 0.00 | 0.00 | 65 | 1031.7 |
| 20260505020204 | 68 | 16 | 2.6 | 6.1 | 0.00 | 0.00 | 0.00 | 63 | 1031.9 |
| 20260505015704 | 68 | 357 | 4.3 | 6.1 | 0.00 | 0.00 | 0.00 | 62 | 1031.9 |
| 20260505015204 | 68 | 18 | 2.6 | 6.1 | 0.00 | 0.00 | 0.00 | 63 | 1032.0 |
| 20260505014205 | 68 | 5 | 1.7 | 7.0 | 0.00 | 0.00 | 0.00 | 66 | 1032.0 |
| 20260505012704 | 67 | 103 | 1.7 | 4.3 | 0.00 | 0.00 | 0.00 | 68 | 1032.2 |
| 20260505012204 | 67 | 113 | 1.7 | 5.2 | 0.00 | 0.00 | 0.00 | 67 | 1032.1 |
| 20260505011704 | 67 | 97 | 2.6 | 5.2 | 0.00 | 0.00 | 0.00 | 70 | 1032.1 |
| 20260505011204 | 67 | 59 | 1.7 | 4.3 | 0.00 | 0.00 | 0.00 | 68 | 1032.1 |
| 20260505010204 | 67 | 122 | 1.7 | 5.2 | 0.00 | 0.00 | 0.00 | 67 | 1032.3 |
| 20260505005205 | 67 | 96 | 1.7 | 5.2 | 0.00 | 0.00 | 0.00 | 67 | 1032.5 |
| 20260505004705 | 67 | 18 | 2.6 | 7.0 | 0.00 | 0.00 | 0.00 | 67 | 1032.6 |
| 20260505004204 | 67 | 18 | 4.3 | 5.2 | 0.00 | 0.00 | 0.00 | 66 | 1032.6 |
| 20260505003704 | 67 | 78 | 2.6 | 6.1 | 0.00 | 0.00 | 0.00 | 69 | 1032.6 |
| 20260505003204 | 66 | 108 | 0.9 | 4.3 | 0.00 | 0.00 | 0.00 | 68 | 1032.8 |
| 20260505002704 | 66 | 78 | 2.6 | 5.2 | 0.00 | 0.00 | 0.00 | 68 | 1032.9 |
| 20260505002205 | 65 | 19 | 2.6 | 6.1 | 0.00 | 0.00 | 0.00 | 69 | 1033.0 |
| 20260505001704 | 65 | 18 | 1.7 | 4.3 | 0.00 | 0.00 | 0.00 | 69 | 1033.0 |
| 20260505001205 | 65 | 8 | 2.6 | 4.3 | 0.00 | 0.00 | 0.00 | 68 | 1033.1 |
| 20260505000704 | 65 | 20 | 1.7 | 4.3 | 0.00 | 0.00 | 0.00 | 68 | 1033.1 |
| 20260505000204 | 65 | 353 | 1.7 | 4.3 | 0.00 | 0.00 | 0.00 | 69 | 1033.2 |
| 20260504235704 | 65 | 37 | 2.6 | 5.2 | 0.00 | 0.00 | 0.00 | 69 | 1033.3 |
| 20260504234705 | 65 | 91 | 1.7 | 4.3 | 0.00 | 0.00 | 0.00 | 71 | 1033.4 |
| 20260504234204 | 65 | 63 | 1.7 | 4.3 | 0.00 | 0.00 | 0.00 | 71 | 1033.4 |
| 20260504233704 | 64 | 80 | 2.6 | 5.2 | 0.00 | 0.00 | 0.00 | 72 | 1033.3 |
| 20260504233205 | 64 | 121 | 0.9 | 5.2 | 0.00 | 0.00 | 0.00 | 72 | 1033.6 |
| 20260504232704 | 64 | 33 | 0.9 | 5.2 | 0.00 | 0.00 | 0.00 | 72 | 1033.6 |
| 20260504232205 | 64 | 27 | 1.7 | 4.3 | 0.00 | 0.00 | 0.00 | 75 | 1033.6 |
| 20260504231704 | 63 | 0 | 0.9 | 1.7 | 0.00 | 0.00 | 0.00 | 76 | 1033.6 |
| 20260504230704 | 62 | 77 | 1.7 | 2.6 | 0.00 | 0.00 | 0.00 | 78 | 1033.9 |
| 20260504230204 | 62 | 176 | 0.9 | 4.3 | 0.00 | 0.00 | 0.00 | 79 | 1033.9 |
| 20260504225204 | 61 | 14 | 0.9 | 1.7 | 0.00 | 0.00 | 0.00 | 80 | 1033.9 |
| 20260504224704 | 60 | 214 | 1.7 | 2.6 | 0.00 | 0.00 | 0.00 | 81 | 1034.0 |
| 20260504223705 | 60 | 282 | 0.9 | 2.6 | 0.00 | 0.00 | 0.00 | 82 | 1034.0 |
| 20260504223203 | 60 | 268 | 1.7 | 2.6 | 0.00 | 0.00 | 0.00 | 82 | 1034.0 |
| 20260504222204 | 59 | 280 | 1.7 | 2.6 | 0.00 | 0.00 | 0.00 | 83 | 1034.1 |
| 20260504221703 | 59 | 272 | 1.7 | 4.3 | 0.00 | 0.00 | 0.00 | 83 | 1034.0 |
| 20260504221204 | 59 | 285 | 2.6 | 5.2 | 0.00 | 0.00 | 0.00 | 84 | 1034.2 |
| 20260504220704 | 59 | 288 | 4.3 | 6.1 | 0.00 | 0.00 | 0.00 | 83 | 1034.2 |
| 20260504220204 | 59 | 278 | 4.3 | 7.8 | 0.00 | 0.00 | 0.00 | 83 | 1033.9 |
| 20260504215704 | 59 | 302 | 4.3 | 5.2 | 0.00 | 0.00 | 0.00 | 82 | 1034.1 |
| 20260504215204 | 58 | 295 | 4.3 | 5.2 | 0.00 | 0.00 | 0.00 | 83 | 1033.9 |
| 20260504213705 | 58 | 305 | 4.3 | 4.3 | 0.00 | 0.00 | 0.00 | 82 | 1033.9 |
| 20260504213204 | 58 | 347 | 2.6 | 4.3 | 0.00 | 0.00 | 0.00 | 83 | 1034.1 |
| 20260504212704 | 57 | 298 | 1.7 | 1.7 | 0.00 | 0.00 | 0.00 | 84 | 1034.0 |
| 20260504212204 | 57 | 301 | 1.7 | 2.6 | 0.00 | 0.00 | 0.00 | 84 | 1033.9 |
| 20260504211704 | 57 | 288 | 2.6 | 4.3 | 0.00 | 0.00 | 0.00 | 85 | 1033.9 |
| 20260504210704 | 56 | 270 | 1.7 | 1.7 | 0.00 | 0.00 | 0.00 | 88 | 1034.0 |
| 20260504210205 | 55 | 287 | 0.9 | 1.7 | 0.00 | 0.00 | 0.00 | 89 | 1034.0 |
| 20260504205703 | 55 | 293 | 1.7 | 4.3 | 0.00 | 0.00 | 0.00 | 90 | 1033.9 |
| 20260504205204 | 54 | 280 | 2.6 | 5.2 | 0.00 | 0.00 | 0.00 | 90 | 1034.1 |
| 20260504204704 | 54 | 249 | 1.7 | 2.6 | 0.00 | 0.00 | 0.00 | 91 | 1033.9 |
| 20260504204204 | 54 | 214 | 0.0 | 0.9 | 0.00 | 0.00 | 0.00 | 91 | 1034.0 |
| 20260504203704 | 54 | 242 | 0.9 | 1.7 | 0.00 | 0.00 | 0.00 | 91 | 1034.1 |
| 20260504203204 | 54 | 300 | 2.6 | 4.3 | 0.00 | 0.00 | 0.00 | 92 | 1034.2 |
| 20260504202704 | 53 | 270 | 2.6 | 4.3 | 0.00 | 0.00 | 0.00 | 92 | 1034.2 |
| 20260504202204 | 53 | 255 | 0.9 | 0.9 | 0.00 | 0.00 | 0.00 | 92 | 1034.0 |
| 20260504201704 | 53 | 328 | 0.9 | 5.2 | 0.00 | 0.00 | 0.00 | 92 | 1034.1 |
| 20260504200705 | 53 | 287 | 1.7 | 4.3 | 0.00 | 0.00 | 0.00 | 92 | 1034.0 |
| 20260504200204 | 53 | 127 | 0.0 | 1.7 | 0.00 | 0.00 | 0.00 | 92 | 1033.7 |
| 20260504195205 | 53 | 129 | 0.9 | 1.7 | 0.00 | 0.00 | 0.00 | 93 | 1033.9 |
| 20260504194704 | 52 | 308 | 0.0 | 1.7 | 0.00 | 0.00 | 0.00 | 93 | 1033.8 |
| 20260504194207 | 52 | 355 | 0.9 | 1.7 | 0.00 | 0.00 | 0.00 | 93 | 1033.8 |
| 20260504193205 | 52 | 326 | 0.9 | 1.7 | 0.00 | 0.00 | 0.00 | 93 | 1033.9 |
| 20260504192704 | 52 | 358 | 0.9 | 1.7 | 0.00 | 0.00 | 0.00 | 93 | 1033.8 |
| 20260504192203 | 52 | 2 | 0.0 | 0.9 | 0.00 | 0.00 | 0.00 | 93 | 1033.7 |
| 20260504191704 | 52 | 143 | 0.0 | 0.9 | 0.00 | 0.00 | 0.00 | 93 | 1033.9 |
| 20260504191204 | 52 | 131 | 0.0 | 1.7 | 0.00 | 0.00 | 0.00 | 93 | 1033.6 |
| 20260504190703 | 52 | 231 | 0.9 | 1.7 | 0.00 | 0.00 | 0.00 | 93 | 1033.6 |
| 20260504190204 | 52 | 296 | 0.9 | 1.7 | 0.00 | 0.00 | 0.00 | 93 | 1033.5 |
| 20260504185704 | 52 | 211 | 0.0 | 0.9 | 0.00 | 0.00 | 0.00 | 93 | 1033.7 |
| 20260504185204 | 52 | 268 | 0.9 | 1.7 | 0.00 | 0.00 | 0.00 | 93 | 1033.5 |
| 20260504184704 | 52 | 275 | 1.7 | 1.7 | 0.00 | 0.00 | 0.00 | 93 | 1033.6 |
| 20260504184204 | 52 | 245 | 0.0 | 1.7 | 0.00 | 0.00 | 0.00 | 93 | 1033.6 |
| 20260504183704 | 52 | 232 | 0.9 | 1.7 | 0.00 | 0.00 | 0.00 | 93 | 1033.7 |
| 20260504183205 | 52 | 262 | 0.0 | 1.7 | 0.00 | 0.00 | 0.00 | 93 | 1033.7 |
| 20260504182704 | 52 | 5 | 0.0 | 1.7 | 0.00 | 0.00 | 0.00 | 93 | 1033.8 |
| 20260504182204 | 52 | 299 | 1.7 | 1.7 | 0.00 | 0.00 | 0.00 | 93 | 1033.7 |
| 20260504181703 | 52 | 241 | 0.0 | 1.7 | 0.00 | 0.00 | 0.00 | 93 | 1033.9 |
| 20260504181204 | 52 | 264 | 2.6 | 4.3 | 0.00 | 0.00 | 0.00 | 93 | 1033.8 |
| 20260504180705 | 52 | 255 | 1.7 | 2.6 | 0.00 | 0.00 | 0.00 | 93 | 1033.9 |
| 20260504180204 | 52 | 256 | 0.9 | 2.6 | 0.00 | 0.00 | 0.00 | 93 | 1033.7 |
| 20260504175704 | 52 | 308 | 0.9 | 1.7 | 0.00 | 0.00 | 0.00 | 93 | 1033.8 |
| 20260504175204 | 52 | 313 | 0.9 | 2.6 | 0.00 | 0.00 | 0.00 | 93 | 1033.8 |
| 20260504174704 | 52 | 286 | 1.7 | 2.6 | 0.00 | 0.00 | 0.00 | 93 | 1033.8 |
| 20260504174204 | 52 | 284 | 2.6 | 4.3 | 0.00 | 0.00 | 0.00 | 93 | 1033.8 |
| 20260504173204 | 52 | 297 | 0.9 | 1.7 | 0.00 | 0.00 | 0.00 | 93 | 1033.8 |
| 20260504172705 | 52 | 346 | 0.0 | 1.7 | 0.00 | 0.00 | 0.00 | 93 | 1033.7 |
| 20260504172204 | 52 | 326 | 1.7 | 2.6 | 0.00 | 0.00 | 0.00 | 93 | 1033.8 |
| 20260504171704 | 52 | 329 | 1.7 | 4.3 | 0.00 | 0.00 | 0.00 | 93 | 1033.9 |
| 20260504171204 | 52 | 313 | 1.7 | 2.6 | 0.00 | 0.00 | 0.00 | 92 | 1033.6 |
| 20260504170705 | 52 | 341 | 0.9 | 1.7 | 0.00 | 0.00 | 0.00 | 92 | 1033.8 |
| 20260504170204 | 52 | 207 | 0.0 | 1.7 | 0.00 | 0.00 | 0.00 | 92 | 1033.7 |
| 20260504150704 | 51 | 290 | 0.0 | 1.7 | 0.00 | 0.00 | 0.00 | 91 | 1034.2 |
| 20260504141204 | 53 | 224 | 1.7 | 1.7 | 0.00 | 0.00 | 0.00 | 88 | 1034.8 |
| 20260504140704 | 53 | 243 | 1.7 | 1.7 | 0.00 | 0.00 | 0.00 | 88 | 1034.6 |
| 20260504140204 | 53 | 231 | 1.7 | 2.6 | 0.00 | 0.00 | 0.00 | 89 | 1034.9 |
| 20260504130704 | 53 | 279 | 2.6 | 4.3 | 0.00 | 0.00 | 0.00 | 87 | 1035.2 |
| 20260504130204 | 53 | 280 | 2.6 | 4.3 | 0.00 | 0.00 | 0.00 | 87 | 1035.3 |
| 20260504120205 | 55 | 190 | 1.7 | 1.7 | 0.00 | 0.00 | 0.00 | 83 | 1035.4 |
| 20260504110204 | 52 | 72 | 0.9 | 1.7 | 0.00 | 0.00 | 0.00 | 89 | 1035.1 |
| 20260504100205 | 51 | 257 | 0.0 | 1.7 | 0.00 | 0.00 | 0.00 | 88 | 1035.5 |
| 20260504081705 | 54 | 326 | 0.9 | 2.6 | 0.00 | 0.00 | 0.00 | 82 | 1035.1 |
| 20260504081205 | 54 | 140 | 0.0 | 1.7 | 0.00 | 0.00 | 0.00 | 82 | 1035.4 |
| 20260504080705 | 54 | 122 | 0.9 | 1.7 | 0.00 | 0.00 | 0.00 | 82 | 1035.2 |
| 20260504080205 | 54 | 277 | 0.0 | 0.9 | 0.00 | 0.00 | 0.00 | 82 | 1035.3 |
| 20260504070204 | 58 | 25 | 2.6 | 4.3 | 0.00 | 0.00 | 0.00 | 72 | 1034.8 |
| 20260504060204 | 60 | 36 | 5.2 | 7.8 | 0.00 | 0.00 | 0.00 | 69 | 1034.1 |
| 20260504050704 | 62 | 34 | 2.6 | 6.1 | 0.00 | 0.00 | 0.00 | 64 | 1033.8 |
| 20260504050204 | 62 | 26 | 2.6 | 4.3 | 0.00 | 0.00 | 0.00 | 64 | 1033.7 |
| 20260504045704 | 62 | 30 | 1.7 | 4.3 | 0.00 | 0.00 | 0.00 | 65 | 1034.0 |
| 20260504045205 | 63 | 65 | 2.6 | 4.3 | 0.00 | 0.00 | 0.00 | 65 | 1033.9 |
| 20260504044704 | 63 | 28 | 3.5 | 5.2 | 0.00 | 0.00 | 0.00 | 64 | 1033.9 |
| 20260504044205 | 63 | 19 | 4.3 | 5.2 | 0.00 | 0.00 | 0.00 | 63 | 1034.0 |
| 20260504043704 | 63 | 19 | 4.3 | 6.1 | 0.00 | 0.00 | 0.00 | 64 | 1034.0 |
| 20260504043204 | 63 | 27 | 2.6 | 4.3 | 0.00 | 0.00 | 0.00 | 64 | 1034.1 |
| 20260504042204 | 63 | 46 | 2.6 | 5.2 | 0.00 | 0.00 | 0.00 | 63 | 1033.9 |
| 20260504041204 | 64 | 52 | 2.6 | 4.3 | 0.00 | 0.00 | 0.00 | 63 | 1033.9 |
| 20260504040704 | 64 | 42 | 2.6 | 4.3 | 0.00 | 0.00 | 0.00 | 63 | 1033.9 |
| 20260504035705 | 64 | 37 | 4.3 | 7.0 | 0.00 | 0.00 | 0.00 | 61 | 1034.1 |
| 20260504035204 | 64 | 24 | 3.5 | 4.3 | 0.00 | 0.00 | 0.00 | 61 | 1033.9 |
| 20260504034704 | 64 | 359 | 2.6 | 5.2 | 0.00 | 0.00 | 0.00 | 60 | 1033.8 |
| 20260504034204 | 65 | 358 | 1.7 | 4.3 | 0.00 | 0.00 | 0.00 | 62 | 1033.9 |
| 20260504033705 | 65 | 339 | 2.6 | 5.2 | 0.00 | 0.00 | 0.00 | 62 | 1034.0 |
| 20260504032704 | 65 | 30 | 2.6 | 6.1 | 0.00 | 0.00 | 0.00 | 58 | 1033.9 |
| 20260504032203 | 66 | 18 | 4.3 | 6.1 | 0.00 | 0.00 | 0.00 | 58 | 1033.9 |
| 20260504031204 | 65 | 333 | 5.2 | 7.8 | 0.00 | 0.00 | 0.00 | 59 | 1033.9 |
| 20260504030204 | 65 | 348 | 5.2 | 8.7 | 0.00 | 0.00 | 0.00 | 61 | 1033.9 |
| 20260504025704 | 66 | 16 | 3.5 | 10.4 | 0.00 | 0.00 | 0.00 | 58 | 1034.1 |
| 20260504025204 | 66 | 339 | 4.3 | 7.0 | 0.00 | 0.00 | 0.00 | 58 | 1034.0 |